CW9372 Weather Reports


time (UTC)temp
F
wind
direction
speed
knots
gust
knots
rain 1hr
in
rain 24hr
in
rain mn
in
humidity
%
barometer
mb
20260505093034 46 280 0.0 2.6 0.00 0.01 0.00 77 1003.8
20260505092926 46 158 0.9 3.5 0.00 0.01 0.00 76 1003.8
20260505092837 46 170 0.9 3.5 0.00 0.01 0.00 76 1003.8
20260505092728 46 312 0.9 3.5 0.00 0.01 0.00 76 1003.8
20260505092639 46 280 0.9 3.5 0.00 0.01 0.00 76 1003.7
20260505092529 46 288 0.9 3.5 0.00 0.01 0.00 75 1003.8
20260505092439 46 295 0.0 3.5 0.00 0.01 0.00 75 1003.8
20260505092348 47 290 0.9 3.5 0.00 0.01 0.00 75 1003.8
20260505092258 47 290 0.9 3.5 0.00 0.01 0.00 74 1003.7
20260505092126 47 311 0.9 3.5 0.00 0.01 0.00 74 1003.8
20260505092032 47 293 0.9 1.7 0.00 0.01 0.00 74 1003.8
20260505091924 47 326 0.0 1.7 0.00 0.01 0.00 74 1003.7
20260505091835 47 325 0.0 1.7 0.00 0.01 0.00 74 1003.7
20260505091727 47 326 0.9 1.7 0.00 0.01 0.00 74 1003.6
20260505091641 47 326 0.9 1.7 0.00 0.01 0.00 74 1003.6
20260505091547 47 340 0.0 1.7 0.00 0.01 0.00 73 1003.6
20260505091437 47 282 0.0 1.7 0.00 0.01 0.00 73 1003.6
20260505091348 47 282 0.0 1.7 0.00 0.01 0.00 73 1003.6
20260505091238 47 281 0.9 1.7 0.00 0.01 0.00 73 1003.6
20260505091129 48 281 0.9 1.7 0.00 0.01 0.00 72 1003.6
20260505091035 48 252 0.9 1.7 0.00 0.01 0.00 72 1003.7
20260505090927 48 288 0.0 1.7 0.00 0.01 0.00 72 1003.6
20260505090838 48 276 0.0 1.7 0.00 0.01 0.00 72 1003.6
20260505090730 48 276 0.0 1.7 0.00 0.01 0.00 72 1003.7
20260505090626 48 304 0.0 1.7 0.00 0.01 0.00 71 1003.7
20260505090533 48 304 0.9 1.7 0.00 0.01 0.00 71 1003.6
20260505090443 48 307 0.9 1.7 0.00 0.01 0.00 71 1003.7
20260505090334 48 309 0.9 1.7 0.00 0.01 0.00 71 1003.6
20260505090225 48 349 0.0 1.7 0.00 0.01 0.00 70 1003.5
20260505090137 48 357 0.0 1.7 0.00 0.01 0.00 70 1003.5
20260505090043 48 106 0.0 0.9 0.00 0.01 0.00 70 1003.5
20260505085934 49 106 0.0 1.7 0.00 0.01 0.00 70 1003.4
20260505085845 49 106 0.0 1.7 0.00 0.01 0.00 70 1003.4
20260505085800 49 119 0.0 1.7 0.00 0.01 0.00 69 1003.4
20260505085631 49 290 0.0 1.7 0.00 0.01 0.00 69 1003.3
20260505085537 49 290 0.0 1.7 0.00 0.01 0.00 69 1003.3
20260505085448 49 290 0.0 1.7 0.00 0.01 0.00 69 1003.3
20260505085358 49 290 0.0 1.7 0.00 0.01 0.00 69 1003.3
20260505085248 49 290 0.9 1.7 0.00 0.01 0.00 69 1003.3
20260505085138 49 290 0.9 1.7 0.00 0.01 0.00 68 1003.3
20260505085044 49 291 0.9 1.7 0.00 0.01 0.00 68 1003.3
20260505084954 49 249 0.0 1.7 0.00 0.01 0.00 68 1003.2
20260505084825 49 246 0.0 2.6 0.00 0.01 0.00 68 1003.2
20260505084736 50 243 0.0 2.6 0.00 0.01 0.00 67 1003.1
20260505084651 50 238 0.0 2.6 0.00 0.01 0.00 67 1003.2
20260505084358 50 352 0.0 2.6 0.00 0.01 0.00 66 1003.0
20260505084228 50 286 0.0 2.6 0.00 0.01 0.00 66 1002.9
20260505084139 50 333 0.9 2.6 0.00 0.01 0.00 66 1002.8
20260505084025 50 3 0.9 2.6 0.00 0.01 0.00 66 1002.8
20260505083934 50 319 0.0 1.7 0.00 0.01 0.00 66 1002.7
20260505083825 50 304 0.0 2.6 0.00 0.01 0.00 66 1002.7
20260505083736 50 304 0.0 2.6 0.00 0.01 0.00 65 1002.7
20260505083631 50 288 0.0 2.6 0.00 0.01 0.00 65 1002.6
20260505083536 50 11 0.0 2.6 0.00 0.01 0.00 65 1002.6
20260505083428 50 11 0.0 2.6 0.00 0.01 0.00 65 1002.7
20260505083338 50 334 0.0 2.6 0.00 0.01 0.00 65 1002.7
20260505083230 50 333 0.0 2.6 0.00 0.01 0.00 65 1002.7
20260505083141 50 333 0.0 2.6 0.00 0.01 0.00 65 1002.8
20260505083028 50 333 0.0 2.6 0.00 0.01 0.00 64 1002.8
20260505082939 50 333 0.0 2.6 0.00 0.01 0.00 64 1002.8
20260505082830 50 164 0.0 1.7 0.00 0.01 0.00 64 1002.8
20260505082726 50 153 0.0 1.7 0.00 0.01 0.00 64 1002.7
20260505082638 50 271 0.0 0.0 0.00 0.01 0.00 64 1002.7
20260505082524 51 271 0.0 1.7 0.00 0.01 0.00 64 1002.7
20260505082437 51 271 0.0 1.7 0.00 0.01 0.00 64 1002.8
20260505082327 51 271 0.0 1.7 0.00 0.01 0.00 64 1002.8
20260505082239 51 271 0.0 1.7 0.00 0.01 0.00 63 1002.7
20260505082131 51 271 0.0 1.7 0.00 0.01 0.00 64 1002.8
20260505082037 51 309 0.0 1.7 0.00 0.01 0.00 64 1002.7
20260505081932 51 309 0.0 1.7 0.00 0.01 0.00 63 1002.7
20260505081843 51 309 0.0 1.7 0.00 0.01 0.00 63 1002.7
20260505081733 51 18 0.9 3.5 0.00 0.01 0.00 63 1002.6
20260505081643 51 323 0.9 3.5 0.00 0.01 0.00 63 1002.6
20260505081529 51 198 0.0 3.5 0.00 0.01 0.00 63 1002.5
20260505081441 51 69 0.0 3.5 0.00 0.01 0.00 63 1002.6
20260505081333 51 338 0.0 3.5 0.00 0.01 0.00 63 1002.6
20260505081245 51 338 0.0 3.5 0.00 0.01 0.00 62 1002.6
20260505081156 51 282 0.0 3.5 0.00 0.01 0.00 63 1002.6
20260505081040 51 282 0.9 3.5 0.00 0.01 0.00 62 1002.6
20260505080935 51 290 0.9 3.5 0.00 0.01 0.00 63 1002.5
20260505080826 51 65 0.0 2.6 0.00 0.01 0.00 62 1002.5
20260505080737 51 271 0.0 2.6 0.00 0.01 0.00 62 1002.4
20260505080647 51 271 0.0 2.6 0.00 0.01 0.00 62 1002.3
20260505080531 51 271 0.0 2.6 0.00 0.01 0.00 62 1002.4
20260505080443 51 271 0.0 3.5 0.00 0.01 0.00 62 1002.4
20260505080335 51 240 0.9 3.5 0.00 0.01 0.00 62 1002.3
20260505080246 51 239 0.9 3.5 0.00 0.01 0.00 62 1002.2
20260505080158 51 301 0.9 3.5 0.00 0.01 0.00 62 1002.3
20260505080026 51 322 0.0 3.5 0.00 0.01 0.00 62 1002.2
20260505075936 51 322 0.0 3.5 0.00 0.01 0.00 62 1002.2
20260505075848 51 322 0.0 3.5 0.00 0.01 0.00 62 1002.2
20260505075737 51 323 0.9 3.5 0.00 0.01 0.00 62 1002.2
20260505075627 51 330 0.9 3.5 0.00 0.01 0.00 62 1002.2
20260505075532 51 32 0.9 3.5 0.00 0.01 0.00 62 1002.2
20260505075442 51 93 0.9 3.5 0.00 0.01 0.00 62 1002.2
20260505075356 51 13 0.9 3.5 0.00 0.01 0.00 62 1002.2
20260505075307 51 34 0.0 3.5 0.00 0.01 0.00 62 1002.2
20260505075218 51 302 0.0 3.5 0.00 0.01 0.00 62 1002.3
20260505075107 52 311 0.9 3.5 0.00 0.01 0.00 61 1002.2
20260505074956 52 248 0.9 3.5 0.00 0.01 0.00 61 1002.3
20260505074831 52 354 1.7 3.5 0.00 0.01 0.00 61 1002.3
20260505074743 52 342 1.7 3.5 0.00 0.01 0.00 61 1002.2
20260505074634 52 299 0.9 2.6 0.00 0.01 0.00 61 1002.2
20260505074539 52 336 0.9 1.7 0.00 0.01 0.00 60 1002.3
20260505074451 52 3 0.9 2.6 0.00 0.01 0.00 60 1002.3
20260505074340 52 284 0.9 2.6 0.00 0.01 0.00 60 1002.3
20260505074254 52 354 0.9 2.6 0.00 0.01 0.00 60 1002.3
20260505074204 52 293 0.9 2.6 0.00 0.01 0.00 60 1002.3
20260505074050 52 278 0.9 2.6 0.00 0.01 0.00 60 1002.2
20260505073939 52 356 0.0 3.5 0.00 0.01 0.00 59 1002.3
20260505073834 52 356 0.9 3.5 0.00 0.01 0.00 59 1002.3
20260505073745 52 359 0.9 3.5 0.00 0.01 0.00 59 1002.3
20260505073658 52 290 0.9 3.5 0.00 0.01 0.00 60 1002.2
20260505073543 52 350 0.0 3.5 0.00 0.01 0.00 60 1002.3
20260505073435 52 13 0.9 3.5 0.00 0.01 0.00 60 1002.3
20260505073327 52 13 0.0 3.5 0.00 0.01 0.00 60 1002.2
20260505073238 52 334 0.9 3.5 0.00 0.01 0.00 60 1002.2
20260505073151 52 334 1.7 3.5 0.00 0.01 0.00 60 1002.2
20260505073058 52 321 0.9 2.6 0.00 0.01 0.00 59 1002.1
20260505072928 52 290 0.0 3.5 0.00 0.01 0.00 60 1002.1
20260505072843 53 58 0.0 4.3 0.00 0.01 0.00 60 1002.1
20260505072732 52 342 0.9 4.3 0.00 0.01 0.00 59 1002.1
20260505072643 53 342 0.9 4.3 0.00 0.01 0.00 60 1002.2
20260505072528 53 344 0.9 4.3 0.00 0.01 0.00 60 1002.2
20260505072438 53 291 0.9 4.3 0.00 0.01 0.00 59 1002.2
20260505072328 53 340 0.9 4.3 0.00 0.01 0.00 59 1002.1
20260505072238 53 262 1.7 5.2 0.00 0.01 0.00 58 1002.2
20260505072129 53 283 1.7 5.2 0.00 0.01 0.00 59 1002.1
20260505072035 53 306 0.9 5.2 0.00 0.01 0.00 59 1002.1
20260505071952 53 300 0.9 5.2 0.00 0.01 0.00 60 1002.1
20260505071903 53 356 0.9 5.2 0.00 0.01 0.00 59 1002.0
20260505071816 53 10 0.0 5.2 0.00 0.01 0.00 61 1002.0
20260505071706 53 360 0.9 5.2 0.00 0.01 0.00 60 1002.1
20260505071552 53 352 1.7 5.2 0.00 0.01 0.00 60 1002.1
20260505071441 53 355 2.6 5.2 0.00 0.01 0.00 60 1002.1
20260505071332 52 296 1.7 5.2 0.00 0.01 0.00 59 1002.0
20260505071224 53 330 0.9 3.5 0.00 0.01 0.00 61 1002.1
20260505071135 53 330 0.9 3.5 0.00 0.01 0.00 61 1002.1
20260505071041 52 297 1.7 3.5 0.00 0.01 0.00 61 1002.1
20260505070954 53 59 1.7 3.5 0.00 0.01 0.00 61 1002.1
20260505070909 53 314 0.9 4.3 0.00 0.01 0.00 61 1002.2
20260505070759 53 338 0.9 4.3 0.00 0.01 0.00 62 1002.3
20260505070711 53 311 0.9 4.3 0.00 0.01 0.00 61 1002.2
20260505070556 53 286 0.9 4.3 0.00 0.01 0.00 62 1002.3
20260505070445 53 303 0.9 4.3 0.00 0.01 0.00 62 1002.3
20260505070335 52 350 0.9 4.3 0.00 0.01 0.00 62 1002.2
20260505070226 52 333 0.9 4.3 0.00 0.01 0.00 62 1002.4
20260505070137 52 21 0.9 4.3 0.00 0.01 0.00 63 1002.4
20260505070044 52 293 0.9 4.3 0.00 0.01 0.00 64 1002.4
20260505065935 52 25 0.9 4.3 0.00 0.01 0.00 63 1002.4
20260505065826 52 303 1.7 4.3 0.00 0.01 0.00 62 1002.4
20260505065737 52 300 1.7 4.3 0.00 0.01 0.00 62 1002.3
20260505065627 52 278 1.7 4.3 0.00 0.01 0.00 64 1002.1
20260505065532 52 251 1.7 4.3 0.00 0.01 0.00 65 1002.1
20260505065445 52 229 0.9 4.3 0.00 0.01 0.00 66 1002.1
20260505065334 51 296 0.9 4.3 0.00 0.01 0.00 69 1002.2
20260505065226 51 23 0.9 4.3 0.00 0.01 0.00 70 1002.0
20260505065136 51 4 0.9 4.3 0.00 0.01 0.00 70 1002.0
20260505065042 51 300 0.9 4.3 0.00 0.01 0.00 73 1002.1
20260505064953 51 4 0.0 0.9 0.00 0.01 0.00 73 1002.1
20260505064826 51 75 0.0 0.9 0.00 0.01 0.00 77 1002.2
20260505064738 51 221 0.0 0.0 0.00 0.01 0.00 76 1002.2
20260505064649 51 213 0.0 0.0 0.00 0.01 0.00 76 1002.2
20260505064535 51 183 0.0 0.0 0.00 0.01 0.00 76 1002.2
20260505064426 51 200 0.0 0.0 0.00 0.01 0.00 77 1002.2
20260505064337 51 200 0.0 0.0 0.00 0.01 0.00 78 1002.2
20260505064248 51 246 0.0 0.0 0.00 0.01 0.00 79 1002.2
20260505064159 51 246 0.0 0.0 0.00 0.01 0.00 79 1002.4
20260505064044 51 246 0.0 0.0 0.00 0.01 0.00 79 1002.3
20260505063935 51 245 0.0 0.0 0.00 0.01 0.00 79 1002.1
20260505063830 51 171 0.0 0.0 0.00 0.01 0.00 79 1001.9
20260505063741 51 171 0.0 0.0 0.00 0.01 0.00 79 1001.8
20260505063653 51 170 0.0 0.0 0.00 0.01 0.00 78 1001.8
20260505063604 51 165 0.0 0.0 0.00 0.01 0.00 79 1001.7
20260505063456 51 210 0.0 0.0 0.00 0.01 0.00 79 1001.7
20260505063405 51 230 0.0 0.0 0.00 0.01 0.00 78 1001.8
20260505063315 51 230 0.0 0.0 0.00 0.01 0.00 78 1001.8
20260505063206 51 193 0.0 0.0 0.00 0.01 0.00 78 1001.7
20260505063117 51 212 0.0 0.0 0.00 0.01 0.00 77 1001.8
20260505063001 51 212 0.0 0.0 0.00 0.01 0.00 78 1001.8
20260505062914 51 212 0.0 0.0 0.00 0.01 0.00 78 1001.8
20260505062804 51 214 0.0 0.9 0.00 0.01 0.00 78 1001.9
20260505062638 51 214 0.0 0.9 0.00 0.01 0.00 78 1001.9
20260505062544 51 214 0.0 1.7 0.00 0.01 0.00 78 1002.1
20260505062435 51 214 0.0 1.7 0.00 0.01 0.00 78 1002.0
20260505062325 51 214 0.0 1.7 0.00 0.01 0.00 77 1002.0
20260505062238 51 214 0.0 1.7 0.00 0.01 0.00 77 1002.1
20260505062148 51 214 0.0 1.7 0.00 0.01 0.00 78 1002.1
20260505062059 51 214 0.0 1.7 0.00 0.01 0.00 78 1001.9
20260505061929 51 214 0.0 1.7 0.00 0.01 0.00 77 1001.8
20260505061840 51 214 0.0 1.7 0.00 0.01 0.00 78 1001.8
20260505061737 52 196 0.0 1.7 0.00 0.01 0.00 78 1001.7
20260505061625 52 220 0.0 0.9 0.00 0.01 0.00 78 1001.7
20260505061530 52 247 0.0 0.9 0.00 0.01 0.00 78 1001.7
20260505061441 52 251 0.0 0.9 0.00 0.01 0.00 78 1001.9
20260505061332 52 251 0.0 0.9 0.00 0.01 0.00 79 1001.9
20260505061243 52 251 0.0 0.9 0.00 0.01 0.00 79 1001.8
20260505061153 52 244 0.0 0.9 0.00 0.01 0.00 80 1001.6
20260505061040 52 175 0.0 0.9 0.00 0.01 0.00 79 1001.5
20260505060930 52 167 0.0 0.9 0.00 0.01 0.00 80 1001.5
20260505060826 52 167 0.0 0.9 0.00 0.01 0.00 80 1001.5
20260505060736 52 167 0.0 1.7 0.00 0.01 0.00 79 1001.5
20260505060651 52 167 0.0 1.7 0.00 0.01 0.00 79 1001.5
20260505060539 53 214 0.0 1.7 0.00 0.01 0.00 79 1001.5
20260505060453 53 214 0.0 1.7 0.00 0.01 0.00 79 1001.5
20260505060404 53 238 0.0 1.7 0.00 0.01 0.00 79 1001.5
20260505060235 53 294 0.0 1.7 0.00 0.01 0.00 79 1001.4
20260505060126 53 294 0.0 1.7 0.00 0.01 0.00 78 1001.4
20260505060033 53 294 0.0 1.7 0.00 0.01 0.00 79 1001.6
20260505055943 53 294 0.0 3.5 0.00 0.01 0.00 79 1001.6
20260505055838 53 296 0.0 3.5 0.00 0.01 0.00 80 1001.7
20260505055729 53 296 0.0 3.5 0.00 0.01 0.00 79 1001.6
20260505055641 53 296 0.0 3.5 0.00 0.01 0.00 80 1001.7
20260505055526 53 296 0.0 3.5 0.00 0.01 0.00 79 1001.7
20260505055436 53 296 0.0 3.5 0.00 0.01 0.00 79 1001.7
20260505055328 53 233 0.9 3.5 0.00 0.01 0.00 79 1001.7
20260505055239 53 233 0.9 3.5 0.00 0.01 0.00 79 1001.6
20260505055151 53 191 0.9 3.5 0.00 0.01 0.00 79 1001.6
20260505055033 53 219 0.0 2.6 0.00 0.01 0.00 79 1001.6
20260505054839 53 229 0.9 3.5 0.00 0.01 0.00 80 1001.6
20260505054728 53 231 0.9 3.5 0.00 0.01 0.00 80 1001.7
20260505054640 53 203 0.9 3.5 0.00 0.01 0.00 80 1001.6
20260505054526 53 217 0.9 3.5 0.00 0.01 0.00 79 1001.5
20260505054436 53 212 0.9 3.5 0.00 0.01 0.00 80 1001.6
20260505054326 53 233 0.9 3.5 0.00 0.01 0.00 79 1001.6
20260505054238 53 235 0.9 3.5 0.00 0.01 0.00 79 1001.7
20260505054129 53 220 0.0 3.5 0.00 0.01 0.00 80 1001.6
20260505054034 53 245 0.0 0.0 0.00 0.01 0.00 79 1001.6
20260505053929 53 245 0.0 0.0 0.00 0.01 0.00 80 1001.5
20260505053840 53 197 0.0 0.0 0.00 0.01 0.00 80 1001.5
20260505053730 53 241 0.0 0.0 0.00 0.01 0.00 80 1001.5
20260505053640 53 241 0.0 0.0 0.00 0.01 0.00 80 1001.5
20260505053527 53 236 0.0 0.0 0.00 0.01 0.00 80 1001.5
20260505053438 53 278 0.0 1.7 0.00 0.01 0.00 80 1001.5
20260505053351 53 294 0.0 1.7 0.00 0.01 0.00 80 1001.5
20260505053301 53 295 0.0 1.7 0.00 0.01 0.00 80 1001.4
20260505053151 53 228 0.0 1.7 0.00 0.01 0.00 80 1001.4
20260505053102 53 228 0.0 1.7 0.00 0.01 0.00 80 1001.3
20260505052935 53 229 0.0 3.5 0.00 0.01 0.00 80 1001.4
20260505052827 53 211 0.0 3.5 0.00 0.01 0.00 80 1001.5
20260505052738 53 204 0.0 3.5 0.00 0.01 0.00 80 1001.5
20260505052648 53 233 0.0 3.5 0.00 0.01 0.00 80 1001.5
20260505052533 53 244 0.0 3.5 0.00 0.01 0.00 80 1001.5
20260505052443 53 302 0.0 3.5 0.00 0.01 0.00 80 1001.5
20260505052355 53 302 0.9 3.5 0.00 0.01 0.00 80 1001.5
20260505052306 53 230 0.9 3.5 0.00 0.01 0.00 80 1001.5
20260505052217 53 155 0.9 3.5 0.00 0.01 0.00 80 1001.5
20260505052106 53 228 0.9 3.5 0.00 0.01 0.00 80 1001.5
20260505052012 53 250 1.7 3.5 0.00 0.01 0.00 80 1001.5
20260505051923 53 242 1.7 3.5 0.00 0.01 0.00 80 1001.3
20260505051838 53 223 0.9 3.5 0.00 0.01 0.00 80 1001.3
20260505051729 53 213 0.0 2.6 0.00 0.01 0.00 80 1001.3
20260505051619 53 203 0.0 2.6 0.00 0.01 0.00 80 1001.3
20260505051521 53 209 0.0 3.5 0.00 0.01 0.00 80 1001.2
20260505051432 53 212 0.0 3.5 0.00 0.01 0.00 80 1001.1
20260505051322 53 212 0.0 3.5 0.00 0.01 0.00 80 1001.1
20260505051208 53 252 0.0 3.5 0.00 0.01 0.00 80 1001.0
20260505051119 53 167 0.9 3.5 0.00 0.01 0.00 80 1001.0
20260505051004 54 207 0.9 3.5 0.00 0.01 0.00 80 1001.1
20260505050834 54 217 1.7 3.5 0.00 0.01 0.00 80 1001.1
20260505050746 54 218 1.7 3.5 0.00 0.01 0.00 80 1001.0
20260505050657 54 247 0.9 1.7 0.00 0.01 0.00 80 1001.0
20260505050545 54 206 0.0 1.7 0.00 0.01 0.00 80 1001.0
20260505050436 54 229 0.0 0.9 0.00 0.01 0.00 80 1000.9
20260505050325 54 227 0.0 2.6 0.00 0.01 0.00 80 1000.9
20260505050237 54 227 0.0 3.5 0.00 0.01 0.00 80 1000.9
20260505050128 54 227 0.0 3.5 0.00 0.01 0.00 79 1000.8
20260505041724 56 174 2.6 6.1 0.00 0.01 0.00 76 1000.8
20260505041636 56 186 1.7 6.1 0.00 0.01 0.00 76 1000.8
20260505041540 56 240 0.9 5.2 0.00 0.01 0.00 76 1000.8
20260505041431 56 282 0.0 7.0 0.00 0.01 0.00 76 1000.8
20260505041326 56 1 0.0 7.0 0.00 0.01 0.00 76 1000.8
20260505041237 56 311 0.0 7.0 0.00 0.01 0.00 76 1000.8
20260505041151 56 233 0.0 7.0 0.00 0.01 0.00 76 1000.8
20260505041055 56 102 0.9 7.0 0.00 0.01 0.00 76 1000.7
20260505040828 56 310 2.6 7.0 0.00 0.01 0.00 76 1000.6
20260505040738 56 231 3.5 7.0 0.00 0.01 0.00 76 1000.6
20260505040648 56 217 2.6 7.0 0.00 0.01 0.00 76 1000.6
20260505040604 56 304 1.7 7.0 0.00 0.01 0.00 76 1000.5
20260505040509 56 248 1.7 5.2 0.00 0.01 0.00 76 1000.4
20260505040400 56 165 1.7 5.2 0.00 0.01 0.00 75 1000.3
20260505040312 56 231 1.7 5.2 0.00 0.01 0.00 75 1000.3
20260505040223 56 242 1.7 5.2 0.00 0.01 0.00 75 1000.4
20260505040114 56 212 1.7 4.3 0.00 0.01 0.00 75 1000.3
20260505035935 56 223 1.7 4.3 0.00 0.01 0.00 75 1000.4
20260505035825 56 120 0.9 4.3 0.00 0.01 0.00 75 1000.4
20260505035736 56 170 0.9 4.3 0.00 0.01 0.00 75 1000.4
20260505035648 56 215 1.7 5.2 0.00 0.01 0.00 75 1000.4
20260505035554 56 167 0.9 7.0 0.00 0.01 0.01 75 1000.5
20260505035429 56 231 0.9 7.0 0.00 0.01 0.01 75 1000.4
20260505035336 56 240 0.9 7.0 0.00 0.01 0.01 75 1000.4
20260505035227 56 316 0.9 7.0 0.00 0.01 0.01 75 1000.4
20260505035137 56 316 0.9 7.0 0.00 0.01 0.01 75 1000.4
20260505035044 56 281 1.7 7.0 0.00 0.01 0.01 75 1000.4
20260505034935 56 259 2.6 7.0 0.00 0.01 0.01 75 1000.5
20260505034847 56 233 2.6 7.0 0.00 0.01 0.01 75 1000.4
20260505034737 56 243 2.6 7.0 0.00 0.01 0.01 74 1000.4
20260505034628 56 159 2.6 7.0 0.00 0.01 0.01 74 1000.4
20260505034538 56 212 1.7 7.0 0.00 0.01 0.01 74 1000.6
20260505034430 57 253 2.6 7.0 0.00 0.01 0.01 74 1000.8
20260505034342 57 212 2.6 7.8 0.00 0.01 0.01 74 1000.8
20260505034253 57 237 0.9 7.8 0.00 0.01 0.01 73 1000.7
20260505034143 57 124 0.9 7.8 0.00 0.01 0.01 73 1000.9
20260505034030 57 117 0.9 7.8 0.00 0.01 0.01 73 1000.8
20260505033942 57 297 1.7 7.8 0.00 0.01 0.01 73 1000.8
20260505033834 57 351 1.7 7.8 0.00 0.01 0.01 73 1000.9
20260505033725 58 329 1.7 7.8 0.00 0.01 0.01 73 1001.0
20260505033640 58 345 2.6 8.7 0.00 0.01 0.01 73 1000.9
20260505033546 58 309 4.3 8.7 0.00 0.01 0.01 72 1000.7
20260505033436 58 256 3.5 8.7 0.00 0.01 0.01 72 1000.6
20260505033347 59 155 2.6 8.7 0.00 0.01 0.01 72 1000.6
20260505033259 59 312 1.7 8.7 0.00 0.01 0.01 72 1000.8
20260505033129 59 294 1.7 8.7 0.00 0.01 0.01 72 1000.9
20260505033035 59 326 2.6 8.7 0.00 0.01 0.01 72 1000.9
20260505032946 59 307 3.5 8.7 0.00 0.01 0.01 71 1000.8
20260505032836 60 226 3.5 8.7 0.00 0.01 0.01 70 1000.7
20260505032727 60 274 2.6 7.0 0.00 0.01 0.01 68 1000.7
20260505032638 61 309 2.6 7.0 0.00 0.01 0.01 67 1000.6
20260505032555 61 299 3.5 7.0 0.00 0.01 0.01 66 1000.6
20260505032500 62 296 3.5 7.0 0.00 0.01 0.01 66 1000.5
20260505032347 63 326 1.7 5.2 0.00 0.01 0.01 68 1000.5
20260505032240 63 286 1.7 4.3 0.00 0.01 0.01 68 1000.4
20260505032131 64 264 1.7 7.0 0.00 0.01 0.01 68 1000.4
20260505032036 64 35 1.7 7.0 0.00 0.01 0.01 67 1000.3
20260505031927 64 135 1.7 7.0 0.00 0.01 0.01 68 1000.1
20260505031838 64 293 1.7 7.0 0.00 0.01 0.01 67 999.9
20260505031730 64 316 1.7 7.0 0.00 0.01 0.01 67 999.6
20260505031626 64 340 1.7 7.0 0.00 0.01 0.01 67 999.5
20260505031532 64 298 2.6 7.0 0.00 0.01 0.01 67 999.3
20260505031443 64 336 2.6 7.8 0.00 0.01 0.01 67 999.3
20260505031355 64 226 1.7 9.6 0.00 0.01 0.01 67 999.3
20260505031225 64 276 0.9 9.6 0.00 0.01 0.01 67 999.3
20260505031136 64 342 1.7 9.6 0.00 0.01 0.01 67 999.3
20260505031042 64 257 1.7 9.6 0.00 0.01 0.01 67 999.3
20260505030933 64 205 2.6 9.6 0.00 0.01 0.01 67 999.2
20260505030824 64 270 1.7 9.6 0.00 0.01 0.01 67 999.1
20260505030736 64 208 2.6 9.6 0.00 0.01 0.01 67 999.0
20260505030633 64 252 4.3 9.6 0.00 0.01 0.01 68 999.1
20260505030538 64 233 3.5 9.6 0.00 0.01 0.01 68 999.1
20260505030450 64 221 1.7 7.8 0.00 0.01 0.01 68 999.1
20260505030401 64 264 2.6 10.4 0.00 0.01 0.01 68 999.0
20260505030232 64 207 2.6 10.4 0.00 0.01 0.01 68 999.0
20260505030142 64 167 4.3 10.4 0.00 0.01 0.01 68 998.9
20260505030056 64 241 4.3 10.4 0.00 0.01 0.01 69 998.9
20260505025941 64 220 1.7 11.3 0.00 0.01 0.01 69 998.7
20260505025851 64 150 2.6 11.3 0.00 0.01 0.01 69 998.7
20260505025802 64 156 4.3 11.3 0.00 0.01 0.01 68 998.6
20260505025636 64 233 4.3 11.3 0.00 0.01 0.01 68 998.6
20260505025543 64 241 3.5 11.3 0.00 0.01 0.01 68 998.6
20260505025433 64 199 3.5 11.3 0.00 0.01 0.01 68 998.6
20260505025344 64 246 4.3 12.2 0.00 0.01 0.01 68 998.6
20260505025256 64 134 5.2 12.2 0.00 0.01 0.01 68 998.6
20260505025206 64 181 5.2 12.2 0.00 0.01 0.01 68 998.6
20260505025051 64 233 3.5 12.2 0.00 0.01 0.01 68 998.5
20260505024941 64 150 4.3 12.2 0.00 0.01 0.01 67 998.6
20260505024833 64 237 5.2 12.2 0.00 0.01 0.01 67 998.5
20260505024724 64 331 6.1 12.2 0.00 0.01 0.01 67 998.5
20260505024640 64 143 6.1 12.2 0.00 0.01 0.01 66 998.6
20260505024526 64 234 3.5 10.4 0.00 0.01 0.01 67 998.5
20260505024438 64 214 4.3 10.4 0.00 0.01 0.01 66 998.5
20260505024329 64 195 4.3 10.4 0.00 0.01 0.01 66 998.5
20260505024240 64 266 3.5 10.4 0.00 0.01 0.01 66 998.4
20260505024153 64 264 4.3 10.4 0.00 0.01 0.01 66 998.4
20260505024058 64 198 5.2 10.4 0.00 0.01 0.01 66 998.5
20260505023950 63 137 3.5 10.4 0.00 0.01 0.01 66 998.5
20260505023859 63 176 3.5 9.6 0.00 0.01 0.01 66 998.5
20260505023749 63 186 3.5 9.6 0.00 0.01 0.01 66 998.5
20260505023638 63 250 4.3 9.6 0.00 0.01 0.01 66 998.5
20260505023529 63 252 4.3 11.3 0.00 0.01 0.01 66 998.3
20260505023439 63 235 4.3 11.3 0.00 0.01 0.01 66 998.4
20260505023330 63 251 4.3 11.3 0.00 0.01 0.01 66 998.3
20260505023241 63 131 3.5 11.3 0.00 0.01 0.01 65 998.4
20260505023153 63 190 3.5 11.3 0.00 0.01 0.01 66 998.4
20260505023104 63 126 4.3 11.3 0.00 0.01 0.01 66 998.5
20260505022957 63 200 4.3 11.3 0.00 0.01 0.01 65 998.5
20260505022908 63 207 5.2 11.3 0.00 0.01 0.01 65 998.4
20260505022819 63 179 6.1 11.3 0.00 0.01 0.01 65 998.5
20260505022730 63 246 6.1 12.2 0.01 0.01 0.01 66 998.4
20260505022530 63 233 5.2 12.2 0.01 0.01 0.01 66 998.4
20260505022440 63 207 4.3 12.2 0.01 0.01 0.01 67 998.3
20260505022333 64 248 5.2 12.2 0.01 0.01 0.01 66 998.3
20260505022243 63 185 6.1 12.2 0.01 0.01 0.01 66 998.3
20260505022134 64 197 5.2 12.2 0.01 0.01 0.01 66 998.2
20260505022042 63 237 5.2 12.2 0.01 0.01 0.01 66 998.4
20260505021932 64 195 5.2 12.2 0.01 0.01 0.01 66 998.3
20260505021843 64 243 5.2 12.2 0.01 0.01 0.01 66 998.3
20260505021754 64 228 7.0 12.2 0.01 0.01 0.01 67 998.4
20260505021628 64 147 6.1 12.2 0.01 0.01 0.01 66 998.4
20260505021533 64 222 5.2 12.2 0.01 0.01 0.01 67 998.4
20260505021424 64 223 3.5 12.2 0.01 0.01 0.01 67 998.3
20260505021336 64 258 3.5 12.2 0.01 0.01 0.01 67 998.3
20260505021246 64 230 5.2 14.8 0.01 0.01 0.01 66 998.4
20260505021157 64 220 6.1 14.8 0.01 0.01 0.01 66 998.4
20260505021109 64 210 7.0 17.4 0.01 0.01 0.01 66 998.5
20260505020958 64 241 7.0 19.1 0.01 0.01 0.01 66 998.5
20260505020850 64 184 6.1 19.1 0.01 0.01 0.01 66 998.5
20260505020759 64 283 7.0 19.1 0.01 0.01 0.01 66 998.5
20260505020628 64 206 8.7 19.1 0.01 0.01 0.01 66 998.5
20260505020538 64 155 8.7 19.1 0.01 0.01 0.01 66 998.5
20260505020428 64 160 7.0 19.1 0.01 0.01 0.01 66 998.6
20260505020338 64 285 7.8 19.1 0.01 0.01 0.01 66 998.6
20260505020228 63 224 8.7 19.1 0.01 0.01 0.01 66 998.6
20260505020140 63 231 8.7 19.1 0.01 0.01 0.01 65 998.6
20260505020046 63 54 7.0 14.8 0.01 0.01 0.01 66 998.6
20260505015957 63 220 7.0 14.8 0.01 0.01 0.01 66 998.6
20260505015827 63 299 6.1 14.8 0.01 0.01 0.01 65 998.5
20260505015738 63 182 5.2 14.8 0.01 0.01 0.01 65 998.5
20260505015633 63 264 6.1 14.8 0.01 0.01 0.01 66 998.5
20260505015538 63 207 7.0 14.8 0.01 0.01 0.01 65 998.5
20260505015429 63 203 7.8 14.8 0.01 0.01 0.01 65 998.3
20260505015341 63 181 7.8 14.8 0.01 0.01 0.01 65 998.4
20260505015231 63 254 7.0 14.8 0.01 0.01 0.01 65 998.4
20260505015142 63 219 7.0 14.8 0.01 0.01 0.01 65 998.3
20260505015028 63 274 7.8 14.8 0.01 0.01 0.01 65 998.3
20260505014939 63 181 7.0 13.9 0.01 0.01 0.01 65 998.4
20260505014849 63 275 6.1 13.0 0.01 0.01 0.01 66 998.4
20260505014802 63 203 7.0 13.0 0.01 0.01 0.01 66 998.4
20260505014657 63 213 6.1 13.9 0.01 0.01 0.01 66 998.3
20260505014608 63 171 6.1 13.9 0.01 0.01 0.01 67 998.3
20260505014514 63 172 5.2 13.9 0.01 0.01 0.01 67 998.4
20260505014403 63 198 5.2 13.9 0.01 0.01 0.01 67 998.2
20260505014315 63 221 5.2 13.9 0.01 0.01 0.01 68 998.2
20260505014227 63 243 5.2 13.9 0.01 0.01 0.01 68 998.1
20260505014118 63 194 4.3 13.9 0.01 0.01 0.01 68 998.1
20260505014004 63 252 5.2 13.9 0.01 0.01 0.01 68 997.8
20260505013834 63 239 6.1 13.9 0.01 0.01 0.01 67 997.9
20260505013725 63 206 6.1 13.0 0.01 0.01 0.01 68 997.9
20260505013637 63 146 6.1 13.0 0.01 0.01 0.01 68 998.1
20260505013527 64 228 4.3 13.0 0.01 0.01 0.01 68 998.1
20260505013240 64 229 6.1 17.4 0.01 0.01 0.01 67 998.4
20260505013131 65 221 5.2 17.4 0.01 0.01 0.01 66 998.4
20260505013037 65 223 5.2 17.4 0.01 0.01 0.01 66 998.5
20260505012947 65 215 6.1 17.4 0.01 0.01 0.01 64 998.4
20260505012900 66 212 6.1 17.4 0.01 0.01 0.01 63 998.4
20260505012811 66 229 7.0 17.4 0.00 0.00 0.00 62 998.3
20260505012700 66 224 7.0 17.4 0.00 0.00 0.00 61 998.3
20260505012524 66 203 7.0 17.4 0.00 0.00 0.00 60 998.4
20260505012439 66 236 8.7 17.4 0.00 0.00 0.00 61 998.4
20260505012329 66 287 7.0 15.6 0.00 0.00 0.00 61 998.3
20260505012240 66 213 6.1 17.4 0.00 0.00 0.00 61 998.3
20260505012132 66 213 6.1 17.4 0.00 0.00 0.00 61 998.3
20260505012039 66 210 8.7 17.4 0.00 0.00 0.00 62 998.2
20260505011931 66 172 7.8 17.4 0.00 0.00 0.00 62 998.1
20260505011841 66 214 6.1 17.4 0.00 0.00 0.00 62 998.0
20260505011732 66 179 6.1 17.4 0.00 0.00 0.00 62 997.9
20260505011626 66 214 7.8 17.4 0.00 0.00 0.00 62 997.9
20260505011532 66 262 7.8 17.4 0.00 0.00 0.00 62 997.9
20260505011444 67 131 7.8 17.4 0.00 0.00 0.00 62 997.9
20260505011355 67 302 7.0 14.8 0.00 0.00 0.00 61 997.8
20260505011246 67 247 6.1 14.8 0.00 0.00 0.00 61 997.9
20260505011157 67 185 5.2 15.6 0.00 0.00 0.00 61 998.0
20260505011043 67 205 5.2 20.9 0.00 0.00 0.00 61 998.0
20260505010933 67 184 6.1 20.9 0.00 0.00 0.00 61 997.9
20260505010846 68 193 6.1 20.9 0.00 0.00 0.00 61 997.9
20260505010757 68 268 5.2 20.9 0.00 0.00 0.00 60 997.7
20260505010647 68 198 6.1 20.9 0.00 0.00 0.00 60 997.7
20260505010532 68 188 8.7 20.9 0.00 0.00 0.00 60 997.9
20260505010427 68 235 7.8 20.9 0.00 0.00 0.00 60 997.8
20260505010339 69 158 7.8 20.9 0.00 0.00 0.00 59 997.7
20260505010250 69 291 10.4 20.9 0.00 0.00 0.00 59 997.6
20260505010200 69 220 8.7 19.1 0.00 0.00 0.00 58 997.7
20260505010045 69 195 7.0 19.1 0.00 0.00 0.00 58 997.7
20260505005935 69 216 7.0 19.1 0.00 0.00 0.00 58 997.7
20260505005846 69 226 4.3 13.9 0.00 0.00 0.00 58 997.7
20260505005737 69 205 6.1 13.9 0.00 0.00 0.00 58 997.5
20260505005649 69 225 7.0 13.9 0.00 0.00 0.00 58 997.7
20260505005533 70 227 5.2 13.9 0.00 0.00 0.00 58 997.5
20260505005424 70 221 6.1 13.9 0.00 0.00 0.00 58 997.5
20260505005340 70 236 7.8 13.9 0.00 0.00 0.00 57 997.5
20260505005250 70 232 7.0 13.9 0.00 0.00 0.00 57 997.7
20260505005140 70 205 6.1 13.9 0.00 0.00 0.00 57 997.6
20260505005027 70 263 7.0 14.8 0.00 0.00 0.00 57 997.5
20260505004938 70 274 6.1 14.8 0.00 0.00 0.00 57 997.6
20260505004829 70 205 6.1 14.8 0.00 0.00 0.00 57 997.6
20260505004741 70 165 6.1 14.8 0.00 0.00 0.00 57 997.6
20260505004651 70 259 6.1 14.8 0.00 0.00 0.00 57 997.6
20260505004541 70 195 7.0 15.6 0.00 0.00 0.00 57 997.6
20260505004432 70 235 5.2 15.6 0.00 0.00 0.00 57 997.7
20260505004327 70 191 4.3 15.6 0.00 0.00 0.00 57 997.7
20260505004239 70 160 6.1 18.2 0.00 0.00 0.00 57 997.7
20260505004150 70 287 7.0 18.2 0.00 0.00 0.00 57 997.5
20260505004101 70 250 4.3 18.2 0.00 0.00 0.00 57 997.7
20260505003932 70 281 5.2 18.2 0.00 0.00 0.00 57 997.6
20260505003824 70 243 7.0 20.0 0.00 0.00 0.00 56 997.6
20260505003735 70 215 7.0 20.0 0.00 0.00 0.00 56 997.7
20260505003627 70 210 5.2 20.0 0.00 0.00 0.00 56 997.7
20260505003534 70 204 6.1 20.0 0.00 0.00 0.00 56 997.5
20260505003430 70 259 6.1 20.0 0.00 0.00 0.00 55 997.7
20260505003341 70 167 5.2 20.0 0.00 0.00 0.00 55 997.9
20260505003233 71 243 5.2 20.0 0.00 0.00 0.00 54 997.8
20260505003126 71 304 7.0 20.0 0.00 0.00 0.00 54 997.7
20260505003033 71 249 7.0 20.0 0.00 0.00 0.00 54 997.8
20260505002945 71 155 4.3 16.5 0.00 0.00 0.00 54 997.7
20260505002856 71 171 6.1 16.5 0.00 0.00 0.00 54 997.7
20260505002748 71 125 6.1 16.5 0.00 0.00 0.00 53 997.7
20260505002700 71 185 5.2 16.5 0.00 0.00 0.00 53 997.6
20260505002527 71 160 5.2 16.5 0.00 0.00 0.00 53 997.5
20260505002439 71 252 6.1 16.5 0.00 0.00 0.00 53 997.5
20260505002350 71 282 6.1 16.5 0.00 0.00 0.00 53 997.5
20260505002300 71 90 5.2 16.5 0.00 0.00 0.00 52 997.5
20260505002153 71 191 6.1 16.5 0.00 0.00 0.00 52 997.5
20260505002105 71 139 7.0 16.5 0.00 0.00 0.00 52 997.5
20260505002011 71 240 7.8 12.2 0.00 0.00 0.00 51 997.5
20260505001901 72 217 7.0 15.6 0.00 0.00 0.00 51 997.4
20260505001753 72 224 5.2 15.6 0.00 0.00 0.00 50 997.4
20260505001704 72 215 5.2 15.6 0.00 0.00 0.00 50 997.4
20260505001530 72 259 3.5 15.6 0.00 0.00 0.00 49 997.5
20260505001424 72 232 2.6 15.6 0.00 0.00 0.00 48 997.4
20260505001335 72 248 3.5 15.6 0.00 0.00 0.00 48 997.4
20260505001227 72 133 5.2 15.6 0.00 0.00 0.00 47 997.4
20260505001136 72 172 6.1 15.6 0.00 0.00 0.00 47 997.3
20260505001043 73 216 6.1 15.6 0.00 0.00 0.00 47 997.5
20260505000935 73 320 5.2 18.2 0.00 0.00 0.00 46 997.4
20260505000846 73 219 6.1 18.2 0.00 0.00 0.00 46 997.4
20260505000758 73 168 4.3 18.2 0.00 0.00 0.00 45 997.4
20260505000627 73 213 4.3 18.2 0.00 0.00 0.00 44 997.3
20260505000533 73 201 5.2 18.2 0.00 0.00 0.00 44 997.3
20260505000428 73 250 6.1 18.2 0.00 0.00 0.00 42 997.4
20260505000340 73 220 6.1 18.2 0.00 0.00 0.00 42 997.4
20260505000230 74 264 8.7 18.2 0.00 0.00 0.00 41 997.5
20260505000141 74 234 8.7 18.2 0.00 0.00 0.00 41 997.5
20260505000048 74 217 7.0 16.5 0.00 0.00 0.00 39 997.5
20260504235939 74 193 7.0 16.5 0.00 0.00 0.00 39 997.5
20260504235830 74 121 7.0 16.5 0.00 0.00 0.00 37 997.4
20260504235741 74 167 6.1 16.5 0.00 0.00 0.00 37 997.4
20260504235632 75 311 4.3 12.2 0.00 0.00 0.00 36 997.4
20260504235543 75 229 4.3 12.2 0.00 0.00 0.00 36 997.3
20260504235435 75 226 4.3 12.2 0.00 0.00 0.00 36 997.3
20260504235326 75 214 3.5 11.3 0.00 0.00 0.00 36 997.3
20260504235236 75 172 2.6 10.4 0.00 0.00 0.00 36 997.4
20260504235148 75 158 4.3 10.4 0.00 0.00 0.00 35 997.5
20260504235059 75 157 5.2 10.4 0.00 0.00 0.00 35 997.4
20260504234928 75 215 4.3 8.7 0.00 0.00 0.00 35 997.4
20260504234840 75 173 4.3 8.7 0.00 0.00 0.00 35 997.5
20260504234730 75 212 3.5 8.7 0.00 0.00 0.00 35 997.4
20260504234625 75 212 3.5 8.7 0.00 0.00 0.00 35 997.4
20260504234531 75 166 3.5 8.7 0.00 0.00 0.00 35 997.3
20260504234443 75 146 3.5 8.7 0.00 0.00 0.00 35 997.3
20260504234335 75 213 3.5 8.7 0.00 0.00 0.00 35 997.4
20260504234225 75 239 2.6 8.7 0.00 0.00 0.00 35 997.3
20260504234137 75 202 0.9 8.7 0.00 0.00 0.00 35 997.3
20260504234022 75 207 1.7 8.7 0.00 0.00 0.00 35 997.3
20260504233913 75 233 2.6 8.7 0.00 0.00 0.00 35 997.3
20260504233802 75 202 3.5 8.7 0.00 0.00 0.00 35 997.3
20260504233636 75 200 4.3 8.7 0.00 0.00 0.00 34 997.3
20260504233541 75 243 3.5 8.7 0.00 0.00 0.00 35 997.4
20260504233454 75 217 4.3 8.7 0.00 0.00 0.00 35 997.4
20260504233404 75 231 5.2 8.7 0.00 0.00 0.00 35 997.4
20260504233234 75 218 4.3 8.7 0.00 0.00 0.00 35 997.4
20260504233126 75 179 2.6 7.8 0.00 0.00 0.00 35 997.4
20260504233032 75 247 1.7 7.8 0.00 0.00 0.00 35 997.4
20260504232943 75 207 1.7 7.8 0.00 0.00 0.00 35 997.4
20260504232835 75 246 2.6 7.8 0.00 0.00 0.00 35 997.4
20260504232731 75 211 3.5 8.7 0.00 0.00 0.00 34 997.5
20260504232641 75 244 3.5 8.7 0.00 0.00 0.00 35 997.5
20260504232546 75 203 3.5 8.7 0.00 0.00 0.00 34 997.4
20260504232458 75 201 4.3 9.6 0.00 0.00 0.00 35 997.5
20260504232328 75 224 5.2 9.6 0.00 0.00 0.00 34 997.6
20260504232239 75 186 4.3 9.6 0.00 0.00 0.00 35 997.5
20260504232126 75 229 4.3 9.6 0.00 0.00 0.00 35 997.6
20260504232032 75 230 4.3 9.6 0.00 0.00 0.00 35 997.5
20260504231924 75 238 4.3 9.6 0.00 0.00 0.00 35 997.6
20260504231834 75 181 5.2 9.6 0.00 0.00 0.00 35 997.6
20260504231730 75 225 5.2 11.3 0.00 0.00 0.00 34 997.6
20260504231641 75 199 4.3 11.3 0.00 0.00 0.00 34 997.7
20260504231546 76 102 3.5 11.3 0.00 0.00 0.00 35 997.6
20260504231458 75 214 4.3 11.3 0.00 0.00 0.00 35 997.6
20260504231408 75 249 3.5 11.3 0.00 0.00 0.00 35 997.7
20260504231320 76 219 3.5 11.3 0.00 0.00 0.00 35 997.6
20260504231211 76 248 3.5 11.3 0.00 0.00 0.00 35 997.6
20260504231100 75 224 6.1 11.3 0.00 0.00 0.00 34 997.8
20260504230930 76 226 6.1 11.3 0.00 0.00 0.00 35 997.8
20260504230840 76 235 4.3 8.7 0.00 0.00 0.00 35 997.8
20260504230751 76 206 3.5 8.7 0.00 0.00 0.00 35 997.8
20260504230625 76 238 1.7 8.7 0.00 0.00 0.00 35 997.8
20260504230530 76 201 2.6 8.7 0.00 0.00 0.00 35 997.9
20260504230441 76 248 2.6 8.7 0.00 0.00 0.00 36 998.0
20260504230351 76 228 2.6 7.0 0.00 0.00 0.00 35 997.9
20260504230241 76 163 2.6 7.0 0.00 0.00 0.00 36 997.9
20260504230155 75 224 2.6 7.0 0.00 0.00 0.00 35 997.9
20260504230105 75 221 2.6 7.0 0.00 0.00 0.00 35 997.9
20260504230012 76 236 2.6 7.8 0.00 0.00 0.00 36 998.0
20260504225902 76 240 3.5 7.8 0.00 0.00 0.00 35 998.0
20260504225733 76 284 3.5 7.8 0.00 0.00 0.00 36 998.0
20260504225627 76 243 2.6 7.8 0.00 0.00 0.00 36 998.1
20260504225534 76 232 1.7 8.7 0.00 0.00 0.00 36 998.0
20260504225445 75 266 2.6 8.7 0.00 0.00 0.00 37 998.0
20260504225359 75 242 3.5 8.7 0.00 0.00 0.00 36 998.0
20260504225310 75 193 3.5 8.7 0.00 0.00 0.00 36 998.2
20260504225200 75 226 4.3 8.7 0.00 0.00 0.00 37 998.1
20260504225026 75 198 3.5 8.7 0.00 0.00 0.00 36 998.2
20260504224937 75 213 2.6 10.4 0.00 0.00 0.00 36 998.1
20260504224827 75 169 5.2 10.4 0.00 0.00 0.00 36 998.3
20260504224739 75 242 4.3 10.4 0.00 0.00 0.00 36 998.2
20260504224649 75 184 2.6 10.4 0.00 0.00 0.00 37 998.2
20260504224600 75 205 2.6 10.4 0.00 0.00 0.00 36 998.2
20260504224453 75 211 2.6 10.4 0.00 0.00 0.00 36 998.3
20260504224343 75 262 3.5 10.4 0.00 0.00 0.00 36 998.3
20260504224257 75 232 3.5 10.4 0.00 0.00 0.00 36 998.3
20260504224207 75 174 2.6 10.4 0.00 0.00 0.00 36 998.3
20260504224119 75 265 2.6 10.4 0.00 0.00 0.00 36 998.4
20260504224024 75 262 2.6 7.8 0.00 0.00 0.00 36 998.3
20260504223914 75 225 1.7 7.8 0.00 0.00 0.00 36 998.4
20260504223825 75 212 3.5 12.2 0.00 0.00 0.00 36 998.3
20260504223627 75 189 3.5 12.2 0.00 0.00 0.00 36 998.4
20260504223533 75 184 3.5 12.2 0.00 0.00 0.00 35 998.4
20260504223341 75 216 3.5 12.2 0.00 0.00 0.00 35 998.5
20260504223231 75 210 3.5 12.2 0.00 0.00 0.00 36 998.5
20260504223141 75 222 5.2 12.2 0.00 0.00 0.00 35 998.5
20260504223055 75 219 6.1 12.2 0.00 0.00 0.00 35 998.5
20260504223001 76 32 4.3 11.3 0.00 0.00 0.00 36 998.6
20260504222831 76 219 3.5 11.3 0.00 0.00 0.00 36 998.6
20260504222742 75 232 4.3 11.3 0.00 0.00 0.00 36 998.6
20260504222634 75 167 4.3 11.3 0.00 0.00 0.00 35 998.6
20260504222540 75 202 5.2 11.3 0.00 0.00 0.00 35 998.7
20260504222431 76 245 5.2 11.3 0.00 0.00 0.00 35 998.7
20260504222326 76 224 4.3 11.3 0.00 0.00 0.00 35 998.7
20260504222237 76 273 4.3 11.3 0.00 0.00 0.00 35 998.7
20260504222129 76 200 3.5 11.3 0.00 0.00 0.00 36 998.6
20260504222035 76 192 5.2 11.3 0.00 0.00 0.00 35 998.7
20260504221925 76 226 5.2 11.3 0.00 0.00 0.00 36 998.8
20260504221836 76 180 3.5 15.6 0.00 0.00 0.00 36 998.8
20260504221725 76 117 1.7 17.4 0.00 0.00 0.00 37 998.8
20260504221637 76 189 2.6 17.4 0.00 0.00 0.00 36 998.8
20260504221543 76 160 4.3 17.4 0.00 0.00 0.00 35 998.8
20260504221439 76 209 4.3 17.4 0.00 0.00 0.00 36 998.7
20260504221331 76 215 4.3 17.4 0.00 0.00 0.00 36 998.6
20260504221240 76 248 4.3 17.4 0.00 0.00 0.00 36 998.8
20260504221153 75 169 7.0 17.4 0.00 0.00 0.00 36 998.8
20260504221102 76 225 7.0 17.4 0.00 0.00 0.00 34 998.9
20260504220951 76 224 6.1 15.6 0.00 0.00 0.00 35 998.9
20260504220901 76 207 5.2 11.3 0.00 0.00 0.00 36 998.8
20260504220754 76 198 4.3 10.4 0.00 0.00 0.00 36 998.8
20260504220705 76 208 2.6 10.4 0.00 0.00 0.00 37 998.9
20260504220528 76 13 4.3 10.4 0.00 0.00 0.00 37 998.9
20260504220440 76 229 4.3 10.4 0.00 0.00 0.00 37 998.8
20260504220357 76 209 3.5 10.4 0.00 0.00 0.00 37 998.8
20260504220308 76 248 3.5 10.4 0.00 0.00 0.00 36 998.9
20260504220157 76 176 6.1 10.4 0.00 0.00 0.00 37 998.9
20260504220042 76 228 5.2 10.4 0.00 0.00 0.00 36 998.9
20260504215936 76 159 4.3 8.7 0.00 0.00 0.00 37 998.9
20260504215826 76 239 4.3 8.7 0.00 0.00 0.00 37 998.9
20260504215737 76 224 3.5 7.8 0.00 0.00 0.00 37 998.9
20260504215628 76 256 3.5 7.8 0.00 0.00 0.00 36 999.0
20260504215533 76 219 2.6 7.8 0.00 0.00 0.00 37 999.0
20260504215428 76 200 3.5 10.4 0.00 0.00 0.00 37 999.0
20260504215339 76 214 3.5 10.4 0.00 0.00 0.00 37 999.0
20260504215230 76 236 2.6 10.4 0.00 0.00 0.00 38 999.0
20260504215142 76 210 4.3 10.4 0.00 0.00 0.00 38 999.0
20260504215028 76 198 4.3 10.4 0.00 0.00 0.00 37 998.9
20260504214940 76 121 2.6 10.4 0.00 0.00 0.00 37 999.1
20260504214832 76 262 2.6 16.5 0.00 0.00 0.00 37 999.0
20260504214743 76 238 3.5 16.5 0.00 0.00 0.00 37 999.1
20260504214635 76 188 3.5 16.5 0.00 0.00 0.00 37 999.0
20260504214526 75 184 2.6 16.5 0.00 0.00 0.00 37 999.0
20260504214436 75 205 2.6 16.5 0.00 0.00 0.00 37 999.1
20260504214328 75 188 2.6 16.5 0.00 0.00 0.00 38 999.1
20260504214239 75 250 4.3 16.5 0.00 0.00 0.00 37 999.0
20260504214151 75 226 5.2 16.5 0.00 0.00 0.00 37 999.0
20260504214036 75 228 4.3 16.5 0.00 0.00 0.00 37 999.0
20260504213928 75 208 6.1 13.9 0.00 0.00 0.00 37 999.0
20260504213838 75 202 7.0 13.9 0.00 0.00 0.00 37 999.0
20260504213749 75 160 6.1 13.9 0.00 0.00 0.00 37 999.1
20260504213659 75 335 5.2 10.4 0.00 0.00 0.00 37 999.1
20260504213528 75 232 6.1 13.0 0.00 0.00 0.00 37 999.0
20260504213440 75 162 6.1 13.0 0.00 0.00 0.00 38 999.0
20260504213351 75 185 6.1 13.0 0.00 0.00 0.00 38 999.1
20260504213241 75 206 5.2 13.0 0.00 0.00 0.00 38 999.1
20260504213131 75 193 4.3 13.0 0.00 0.00 0.00 38 999.2
20260504213037 75 250 4.3 13.0 0.00 0.00 0.00 38 999.1
20260504212929 75 167 6.1 13.0 0.00 0.00 0.00 38 999.2
20260504212840 75 203 7.0 13.0 0.00 0.00 0.00 38 999.2
20260504212731 75 225 6.1 12.2 0.00 0.00 0.00 38 999.1
20260504212625 76 263 6.1 12.2 0.00 0.00 0.00 37 999.2
20260504212531 76 199 6.1 12.2 0.00 0.00 0.00 38 999.2
20260504212442 76 172 4.3 12.2 0.00 0.00 0.00 38 999.3
20260504212354 76 245 4.3 12.2 0.00 0.00 0.00 38 999.2
20260504212244 76 262 4.3 12.2 0.00 0.00 0.00 38 999.3
20260504212135 76 239 6.1 12.2 0.00 0.00 0.00 38 999.3
20260504212041 76 190 6.1 12.2 0.00 0.00 0.00 38 999.3
20260504211932 76 204 5.2 10.4 0.00 0.00 0.00 38 999.2
20260504211844 76 220 5.2 10.4 0.00 0.00 0.00 38 999.3
20260504211755 76 202 3.5 9.6 0.00 0.00 0.00 38 999.2
20260504211628 76 214 4.3 9.6 0.00 0.00 0.00 38 999.2
20260504211535 76 187 4.3 9.6 0.00 0.00 0.00 39 999.3
20260504211426 76 129 4.3 9.6 0.00 0.00 0.00 38 999.4
20260504211337 76 181 3.5 11.3 0.00 0.00 0.00 39 999.3
20260504211229 76 171 3.5 11.3 0.00 0.00 0.00 39 999.3
20260504211140 76 248 4.3 11.3 0.00 0.00 0.00 39 999.3
20260504211046 76 201 3.5 11.3 0.00 0.00 0.00 39 999.4
20260504210936 76 255 3.5 11.3 0.00 0.00 0.00 39 999.3
20260504210826 76 117 4.3 11.3 0.00 0.00 0.00 39 999.4
20260504210743 76 265 5.2 11.3 0.00 0.00 0.00 39 999.4
20260504210634 76 191 6.1 14.8 0.00 0.00 0.00 38 999.3
20260504210539 76 213 6.1 14.8 0.00 0.00 0.00 39 999.3
20260504210450 76 260 5.2 14.8 0.00 0.00 0.00 39 999.4
20260504210341 76 295 4.3 14.8 0.00 0.00 0.00 38 999.5
20260504210231 76 234 3.5 14.8 0.00 0.00 0.00 39 999.4
20260504210143 76 263 4.3 14.8 0.00 0.00 0.00 39 999.4
20260504210028 76 209 5.2 14.8 0.00 0.00 0.00 38 999.4
20260504205940 76 200 7.8 14.8 0.00 0.00 0.00 38 999.5
20260504205831 76 212 7.0 14.8 0.00 0.00 0.00 38 999.5
20260504205726 76 235 6.1 12.2 0.00 0.00 0.00 39 999.4
20260504205637 76 256 5.2 14.8 0.00 0.00 0.00 39 999.4
20260504205542 76 193 5.2 14.8 0.00 0.00 0.00 39 999.5
20260504205433 76 162 6.1 14.8 0.00 0.00 0.00 39 999.4
20260504205343 76 258 6.1 14.8 0.00 0.00 0.00 40 999.4
20260504205234 76 240 5.2 14.8 0.00 0.00 0.00 39 999.5
20260504205125 76 210 6.1 14.8 0.00 0.00 0.00 39 999.6
20260504205031 76 205 6.1 14.8 0.00 0.00 0.00 39 999.6
20260504204942 76 184 7.0 14.8 0.00 0.00 0.00 39 999.6
20260504204857 76 205 6.1 14.8 0.00 0.00 0.00 39 999.7
20260504204727 76 236 4.3 12.2 0.00 0.00 0.00 39 999.8
20260504204639 76 183 5.2 12.2 0.00 0.00 0.00 39 999.7
20260504204525 76 231 5.2 12.2 0.00 0.00 0.00 40 999.8
20260504204436 76 222 4.3 13.0 0.00 0.00 0.00 40 999.7
20260504204327 76 226 6.1 13.0 0.00 0.00 0.00 39 999.8
20260504204239 76 269 7.0 13.0 0.00 0.00 0.00 39 999.9
20260504204130 76 231 5.2 13.0 0.00 0.00 0.00 39 999.9
20260504204036 76 174 5.2 13.0 0.00 0.00 0.00 39 999.8
20260504203932 76 217 5.2 13.0 0.00 0.00 0.00 40 999.9
20260504203841 76 180 6.1 13.0 0.00 0.00 0.00 39 999.8
20260504203754 76 267 6.1 13.0 0.00 0.00 0.00 39 999.8
20260504203704 77 171 6.1 13.0 0.00 0.00 0.00 39 1000.0
20260504203528 77 227 3.5 11.3 0.00 0.00 0.00 39 1000.1
20260504203439 77 160 3.5 12.2 0.00 0.00 0.00 40 1000.1
20260504203350 76 192 2.6 12.2 0.00 0.00 0.00 40 1000.1
20260504203300 76 253 3.5 12.2 0.00 0.00 0.00 41 1000.0
20260504203148 76 286 4.3 12.2 0.00 0.00 0.00 41 1000.1
20260504203100 76 246 5.2 12.2 0.00 0.00 0.00 41 1000.1
20260504203006 76 220 7.0 14.8 0.00 0.00 0.00 40 1000.1
20260504202900 76 252 6.1 14.8 0.00 0.00 0.00 40 1000.2
20260504202753 76 160 6.1 14.8 0.00 0.00 0.00 41 1000.2
20260504202703 76 245 5.2 14.8 0.00 0.00 0.00 41 1000.0
20260504202548 76 167 6.1 14.8 0.00 0.00 0.00 41 1000.1
20260504202439 76 215 7.0 14.8 0.00 0.00 0.00 41 1000.1
20260504202347 76 179 7.8 14.8 0.00 0.00 0.00 42 1000.2
20260504202300 76 169 7.0 14.8 0.00 0.00 0.00 42 1000.2
20260504202211 76 269 4.3 14.8 0.00 0.00 0.00 42 1000.0
20260504202057 76 233 5.2 14.8 0.00 0.00 0.00 42 1000.1
20260504201928 76 229 5.2 15.6 0.00 0.00 0.00 43 1000.1
20260504201839 75 208 6.1 16.5 0.00 0.00 0.00 43 1000.1
20260504201735 75 221 7.0 16.5 0.00 0.00 0.00 43 1000.1
20260504201625 75 216 6.1 16.5 0.00 0.00 0.00 44 1000.1
20260504201531 75 152 7.0 16.5 0.00 0.00 0.00 43 1000.1
20260504201441 75 333 6.1 16.5 0.00 0.00 0.00 44 1000.2
20260504201351 75 94 5.2 16.5 0.00 0.00 0.00 44 1000.2
20260504201303 75 198 7.0 16.5 0.00 0.00 0.00 44 1000.2
20260504201131 75 207 9.6 16.5 0.00 0.00 0.00 44 1000.2
20260504201036 75 224 8.7 16.5 0.00 0.00 0.00 44 1000.2
20260504200926 75 228 7.0 15.6 0.00 0.00 0.00 45 1000.2
20260504200838 75 218 6.1 15.6 0.00 0.00 0.00 45 1000.3
20260504200748 75 217 7.0 16.5 0.00 0.00 0.00 45 1000.2
20260504200658 75 184 7.8 16.5 0.00 0.00 0.00 45 1000.3
20260504200527 75 293 7.8 16.5 0.00 0.00 0.00 45 1000.3
20260504200438 75 238 7.8 16.5 0.00 0.00 0.00 45 1000.4
20260504200349 75 233 7.8 16.5 0.00 0.00 0.00 45 1000.4
20260504200239 75 196 7.8 16.5 0.00 0.00 0.00 45 1000.4
20260504200150 75 288 7.8 16.5 0.00 0.00 0.00 45 1000.5
20260504200035 75 77 7.8 16.5 0.00 0.00 0.00 45 1000.4
20260504195927 75 224 7.8 16.5 0.00 0.00 0.00 45 1000.5
20260504195839 75 226 5.2 16.5 0.00 0.00 0.00 45 1000.7
20260504195749 74 215 4.3 16.5 0.00 0.00 0.00 46 1000.4
20260504195639 74 203 6.1 16.5 0.00 0.00 0.00 45 1000.5
20260504195526 74 224 7.0 17.4 0.00 0.00 0.00 45 1000.5
20260504195441 74 218 6.1 17.4 0.00 0.00 0.00 45 1000.6
20260504195353 74 141 6.1 17.4 0.00 0.00 0.00 46 1000.6
20260504195305 74 19 7.8 17.4 0.00 0.00 0.00 46 1000.5
20260504195134 74 232 7.0 17.4 0.00 0.00 0.00 46 1000.7
20260504195042 74 218 7.0 17.4 0.00 0.00 0.00 46 1000.6
20260504194933 74 222 8.7 17.4 0.00 0.00 0.00 45 1000.6
20260504194844 74 168 7.0 17.4 0.00 0.00 0.00 46 1000.7
20260504194756 74 188 7.0 17.4 0.00 0.00 0.00 46 1000.7
20260504194707 74 250 7.0 14.8 0.00 0.00 0.00 46 1000.6
20260504194618 74 196 7.8 14.8 0.00 0.00 0.00 46 1000.6
20260504194502 74 263 6.1 13.9 0.00 0.00 0.00 46 1000.7
20260504194416 74 193 7.8 13.9 0.00 0.00 0.00 46 1000.7
20260504194306 74 200 8.7 13.9 0.00 0.00 0.00 45 1000.7
20260504194218 74 182 7.8 18.2 0.00 0.00 0.00 45 1000.8
20260504194107 74 77 7.0 18.2 0.00 0.00 0.00 45 1000.6
20260504193952 74 208 6.1 18.2 0.00 0.00 0.00 45 1000.6
20260504193842 74 165 5.2 18.2 0.00 0.00 0.00 46 1000.8
20260504193731 74 294 6.1 18.2 0.00 0.00 0.00 46 1000.7
20260504193642 74 247 6.1 18.2 0.00 0.00 0.00 46 1000.7
20260504193548 73 250 5.2 18.2 0.00 0.00 0.00 46 1000.8
20260504193436 73 235 7.0 18.2 0.00 0.00 0.00 46 1000.9
20260504193348 73 230 7.0 18.2 0.00 0.00 0.00 46 1000.8
20260504193237 73 201 5.2 16.5 0.00 0.00 0.00 46 1000.8
20260504193131 73 257 7.8 16.5 0.00 0.00 0.00 46 1000.9
20260504193040 74 221 8.7 16.5 0.00 0.00 0.00 45 1001.0
20260504192930 74 218 7.8 13.9 0.00 0.00 0.00 45 1000.8
20260504192841 74 235 7.8 13.9 0.00 0.00 0.00 45 1000.8
20260504192732 74 236 7.0 13.9 0.00 0.00 0.00 44 1000.7
20260504192624 74 226 7.0 13.9 0.00 0.00 0.00 44 1000.7
20260504192531 74 221 5.2 13.9 0.00 0.00 0.00 44 1000.7
20260504192441 75 158 3.5 13.9 0.00 0.00 0.00 44 1000.8
20260504192336 74 185 5.2 13.9 0.00 0.00 0.00 45 1000.9
20260504192227 74 219 6.1 13.9 0.00 0.00 0.00 44 1000.8
20260504192137 75 221 6.1 13.9 0.00 0.00 0.00 44 1000.9
20260504192044 74 174 7.8 13.9 0.00 0.00 0.00 44 1000.8
20260504191934 75 162 7.8 13.9 0.00 0.00 0.00 43 1000.9
20260504191825 75 193 7.0 13.0 0.00 0.00 0.00 44 1000.9
20260504191736 75 223 7.0 12.2 0.00 0.00 0.00 43 1000.9
20260504191647 75 82 7.0 12.2 0.00 0.00 0.00 43 1000.9
20260504191531 75 209 4.3 13.0 0.00 0.00 0.00 44 1000.9
20260504191441 74 226 5.2 13.0 0.00 0.00 0.00 44 1001.0
20260504191336 74 210 5.2 13.0 0.00 0.00 0.00 43 1001.0
20260504191226 74 311 3.5 13.0 0.00 0.00 0.00 44 1001.0
20260504191137 74 261 5.2 13.0 0.00 0.00 0.00 44 1001.0
20260504191042 74 146 5.2 13.0 0.00 0.00 0.00 44 1001.0
20260504190956 74 226 6.1 13.0 0.00 0.00 0.00 44 1001.0
20260504190904 74 282 7.0 13.0 0.00 0.00 0.00 43 1001.0
20260504190734 74 265 7.8 13.0 0.00 0.00 0.00 43 1000.9
20260504190625 74 238 6.1 13.9 0.00 0.00 0.00 43 1001.0
20260504190532 74 188 5.2 13.9 0.00 0.00 0.00 43 1000.9
20260504190427 74 152 6.1 13.9 0.00 0.00 0.00 43 1000.9
20260504190338 74 252 5.2 13.9 0.00 0.00 0.00 43 1001.0
20260504190228 74 174 5.2 13.9 0.00 0.00 0.00 43 1000.9
20260504190140 74 182 5.2 13.9 0.00 0.00 0.00 43 1000.9
20260504190025 74 228 4.3 13.9 0.00 0.00 0.00 43 1001.0
20260504185936 74 169 5.2 13.9 0.00 0.00 0.00 43 1000.9
20260504185828 74 283 5.2 15.6 0.00 0.00 0.00 42 1001.0
20260504185739 74 257 5.2 15.6 0.00 0.00 0.00 43 1001.0
20260504185653 74 290 5.2 15.6 0.00 0.00 0.00 43 1001.0
20260504185537 74 210 5.2 15.6 0.00 0.00 0.00 43 1000.9
20260504185431 73 235 5.2 15.6 0.00 0.00 0.00 43 1001.0
20260504185342 73 338 7.0 15.6 0.00 0.00 0.00 43 1000.9
20260504185233 74 254 7.8 15.6 0.00 0.00 0.00 43 1001.0
20260504185125 74 203 7.0 15.6 0.00 0.00 0.00 43 1001.0
20260504185031 74 217 6.1 15.6 0.00 0.00 0.00 41 1001.0
20260504184942 74 212 6.1 13.0 0.00 0.00 0.00 43 1000.9
20260504184834 74 179 6.1 19.1 0.00 0.00 0.00 42 1000.9
20260504184746 74 261 5.2 19.1 0.00 0.00 0.00 42 1000.9
20260504184635 74 264 4.3 19.1 0.00 0.00 0.00 42 1001.0
20260504184539 74 200 4.3 19.1 0.00 0.00 0.00 42 1001.1
20260504184433 74 245 5.2 19.1 0.00 0.00 0.00 42 1001.0
20260504184324 74 210 5.2 19.1 0.00 0.00 0.00 42 1001.1
20260504184235 74 129 5.2 19.1 0.00 0.00 0.00 42 1001.0
20260504184145 74 243 7.8 19.1 0.00 0.00 0.00 42 1001.0
20260504184030 74 188 8.7 19.1 0.00 0.00 0.00 41 1001.1
20260504183940 74 181 6.1 18.2 0.00 0.00 0.00 41 1001.1
20260504183831 74 232 5.2 18.2 0.00 0.00 0.00 41 1001.0
20260504183741 74 241 6.1 18.2 0.00 0.00 0.00 40 1001.0
20260504183652 74 254 6.1 18.2 0.00 0.00 0.00 41 1001.0
20260504183536 74 151 3.5 15.6 0.00 0.00 0.00 41 1001.0
20260504183431 74 253 3.5 15.6 0.00 0.00 0.00 41 1001.0
20260504183341 74 201 3.5 15.6 0.00 0.00 0.00 40 1001.0
20260504183233 74 190 5.2 15.6 0.00 0.00 0.00 40 1001.1
20260504183124 74 237 6.1 15.6 0.00 0.00 0.00 39 1001.0
20260504183029 74 231 4.3 15.6 0.00 0.00 0.00 40 1001.0
20260504182939 74 246 3.5 15.6 0.00 0.00 0.00 40 1001.0
20260504182829 74 217 5.2 15.6 0.00 0.00 0.00 40 1001.0
20260504182741 74 225 7.0 15.6 0.00 0.00 0.00 40 1001.0
20260504182653 74 224 7.0 15.6 0.00 0.00 0.00 39 1001.0
20260504182542 74 167 4.3 13.0 0.00 0.00 0.00 39 1001.0
20260504182434 73 288 4.3 12.2 0.00 0.00 0.00 40 1001.0
20260504182346 73 226 7.8 14.8 0.00 0.00 0.00 39 1001.0
20260504182237 73 211 7.8 14.8 0.00 0.00 0.00 39 1001.0
20260504182129 73 238 7.8 14.8 0.00 0.00 0.00 39 1001.0
20260504182036 73 233 7.0 14.8 0.00 0.00 0.00 39 1001.0
20260504181928 73 181 5.2 14.8 0.00 0.00 0.00 39 1001.0
20260504181839 73 157 4.3 14.8 0.00 0.00 0.00 40 1000.9
20260504181730 73 141 5.2 14.8 0.00 0.00 0.00 39 1000.9
20260504181647 73 261 7.0 14.8 0.00 0.00 0.00 39 1001.0
20260504181530 73 285 7.0 15.6 0.00 0.00 0.00 38 1001.0
20260504181442 73 281 6.1 15.6 0.00 0.00 0.00 39 1001.1
20260504181352 73 192 7.0 15.6 0.00 0.00 0.00 38 1001.0
20260504181240 73 219 7.0 15.6 0.00 0.00 0.00 39 1001.0
20260504181154 73 145 7.0 15.6 0.00 0.00 0.00 38 1001.0
20260504181037 73 200 7.0 15.6 0.00 0.00 0.00 38 1001.1
20260504180927 73 177 6.1 15.6 0.00 0.00 0.00 38 1001.0
20260504180837 73 244 7.0 15.6 0.00 0.00 0.00 38 1001.0
20260504180727 73 117 5.2 15.6 0.00 0.00 0.00 38 1001.0
20260504180639 73 16 6.1 13.9 0.00 0.00 0.00 38 1001.0
20260504180530 73 294 5.2 13.9 0.00 0.00 0.00 38 1001.1
20260504180439 73 254 3.5 13.9 0.00 0.00 0.00 39 1001.1
20260504180352 73 129 4.3 13.9 0.00 0.00 0.00 39 1001.1
20260504180303 73 109 3.5 13.9 0.00 0.00 0.00 40 1001.1
20260504180134 73 309 3.5 14.8 0.00 0.00 0.00 40 1001.1
20260504180039 72 333 5.2 14.8 0.00 0.00 0.00 40 1001.2
20260504175954 72 222 7.8 20.9 0.00 0.00 0.00 40 1001.2
20260504175905 73 196 7.0 20.9 0.00 0.00 0.00 40 1001.2
20260504175734 73 189 4.3 20.9 0.00 0.00 0.00 40 1001.3
20260504175647 73 236 4.3 20.9 0.00 0.00 0.00 40 1001.2
20260504175601 72 248 5.2 20.9 0.00 0.00 0.00 40 1001.3
20260504175430 72 209 7.0 20.9 0.00 0.00 0.00 40 1001.3
20260504175342 72 141 7.8 20.9 0.00 0.00 0.00 39 1001.4
20260504175233 73 241 8.7 20.9 0.00 0.00 0.00 39 1001.4
20260504175143 73 240 7.0 20.9 0.00 0.00 0.00 39 1001.2
20260504175049 73 231 6.1 13.0 0.00 0.00 0.00 39 1001.3
20260504174938 73 246 7.0 13.0 0.00 0.00 0.00 37 1001.3
20260504174849 73 186 7.0 13.0 0.00 0.00 0.00 37 1001.3
20260504174738 73 158 6.1 12.2 0.00 0.00 0.00 37 1001.3
20260504174650 73 173 4.3 12.2 0.00 0.00 0.00 38 1001.3
20260504174555 73 279 4.3 13.0 0.00 0.00 0.00 38 1001.3
20260504174430 73 223 6.1 14.8 0.00 0.00 0.00 39 1001.3
20260504174340 73 196 6.1 14.8 0.00 0.00 0.00 38 1001.3
20260504174232 73 241 4.3 14.8 0.00 0.00 0.00 39 1001.3
20260504174142 72 172 3.5 14.8 0.00 0.00 0.00 39 1001.3
20260504174028 72 181 4.3 14.8 0.00 0.00 0.00 39 1001.3
20260504173938 72 108 6.1 14.8 0.00 0.00 0.00 39 1001.4
20260504173830 72 219 7.0 14.8 0.00 0.00 0.00 38 1001.4
20260504173741 72 292 7.8 14.8 0.00 0.00 0.00 38 1001.4
20260504173652 73 204 5.2 14.8 0.00 0.00 0.00 39 1001.4
20260504173541 73 292 4.3 11.3 0.00 0.00 0.00 38 1001.4
20260504173433 73 220 6.1 13.0 0.00 0.00 0.00 37 1001.4
20260504173343 73 219 5.2 13.0 0.00 0.00 0.00 38 1001.4
20260504173233 73 213 5.2 13.0 0.00 0.00 0.00 37 1001.4
20260504173143 73 243 4.3 13.0 0.00 0.00 0.00 37 1001.4
20260504173030 72 169 4.3 14.8 0.00 0.00 0.00 37 1001.4
20260504172940 72 262 5.2 14.8 0.00 0.00 0.00 37 1001.5
20260504172852 72 270 6.1 14.8 0.00 0.00 0.00 37 1001.5
20260504172742 72 218 6.1 17.4 0.00 0.00 0.00 36 1001.6
20260504172637 72 238 6.1 17.4 0.00 0.00 0.00 36 1001.5
20260504172542 72 210 7.0 17.4 0.00 0.00 0.00 36 1001.5
20260504172434 72 224 5.2 17.4 0.00 0.00 0.00 36 1001.5
20260504172327 72 224 7.0 17.4 0.00 0.00 0.00 36 1001.5
20260504172238 72 238 7.8 17.4 0.00 0.00 0.00 36 1001.5
20260504172129 72 221 7.0 17.4 0.00 0.00 0.00 36 1001.5
20260504172036 72 212 7.8 17.4 0.00 0.00 0.00 37 1001.5
20260504171948 72 219 7.8 17.4 0.00 0.00 0.00 36 1001.6
20260504171859 72 221 7.0 15.6 0.00 0.00 0.00 36 1001.7
20260504171749 72 166 5.2 15.6 0.00 0.00 0.00 38 1001.7
20260504171703 72 210 5.2 15.6 0.00 0.00 0.00 38 1001.7
20260504171528 72 159 6.1 15.6 0.00 0.00 0.00 36 1001.6
20260504171438 72 219 5.2 15.6 0.00 0.00 0.00 37 1001.7
20260504171352 72 169 6.1 15.6 0.00 0.00 0.00 37 1001.7
20260504171303 72 237 7.0 15.6 0.00 0.00 0.00 36 1001.8
20260504171132 72 191 6.1 15.6 0.00 0.00 0.00 37 1001.8
20260504171039 72 248 5.2 13.9 0.00 0.00 0.00 36 1001.7
20260504170930 72 211 7.0 13.9 0.00 0.00 0.00 37 1001.7
20260504170842 72 209 7.0 13.9 0.00 0.00 0.00 36 1001.7
20260504170753 72 262 5.2 13.9 0.00 0.00 0.00 36 1001.7
20260504170628 72 159 7.0 13.9 0.00 0.00 0.00 37 1001.7
20260504170533 72 215 6.1 13.9 0.00 0.00 0.00 36 1001.7
20260504170445 72 212 6.1 13.9 0.00 0.00 0.00 36 1001.8
20260504170357 72 244 5.2 13.9 0.00 0.00 0.00 35 1001.7
20260504170226 72 99 6.1 13.9 0.00 0.00 0.00 36 1001.8
20260504170138 72 174 6.1 13.9 0.00 0.00 0.00 36 1001.8
20260504160439 69 240 5.2 13.0 0.00 0.00 0.00 42 1002.6
20260504160330 69 207 3.5 13.0 0.00 0.00 0.00 43 1002.5
20260504160241 69 193 4.3 13.0 0.00 0.00 0.00 42 1002.5
20260504160157 69 218 6.1 13.0 0.00 0.00 0.00 42 1002.5
20260504160106 69 252 7.0 13.0 0.00 0.00 0.00 42 1002.4
20260504151132 65 153 3.5 9.6 0.00 0.00 0.00 51 1003.0
20260504151034 65 297 3.5 9.6 0.00 0.00 0.00 51 1003.0
20260504150928 65 202 4.3 9.6 0.00 0.00 0.00 51 1003.0
20260504150840 65 240 4.3 9.6 0.00 0.00 0.00 51 1003.1
20260504150730 65 209 4.3 9.6 0.00 0.00 0.00 51 1003.1
20260504150642 65 250 4.3 11.3 0.00 0.00 0.00 51 1003.1
20260504150525 65 238 4.3 11.3 0.00 0.00 0.00 51 1003.0
20260504150436 65 153 4.3 11.3 0.00 0.00 0.00 52 1003.1
20260504150328 65 105 4.3 11.3 0.00 0.00 0.00 51 1003.0
20260504150238 65 250 3.5 11.3 0.00 0.00 0.00 52 1003.1
20260504150153 65 139 5.2 11.3 0.00 0.00 0.00 52 1003.1
20260504150108 65 184 5.2 11.3 0.00 0.00 0.00 50 1003.1
20260504141234 62 192 3.5 9.6 0.00 0.00 0.00 59 1003.4
20260504141128 62 244 4.3 9.6 0.00 0.00 0.00 59 1003.6
20260504141035 62 216 3.5 9.6 0.00 0.00 0.00 59 1003.6
20260504140925 61 291 2.6 10.4 0.00 0.00 0.00 61 1003.4
20260504140834 61 135 3.5 10.4 0.00 0.00 0.00 61 1003.5
20260504140725 61 181 5.2 10.4 0.00 0.00 0.00 60 1003.4
20260504140635 61 141 5.2 10.4 0.00 0.00 0.00 60 1003.5
20260504140542 61 197 5.2 10.4 0.00 0.00 0.00 60 1003.6
20260504140432 61 186 5.2 10.4 0.00 0.00 0.00 61 1003.6
20260504140343 61 172 4.3 11.3 0.00 0.00 0.00 61 1003.5
20260504140234 61 278 5.2 11.3 0.00 0.00 0.00 61 1003.6
20260504140147 61 212 4.3 11.3 0.00 0.00 0.00 60 1003.6
20260504130734 58 224 4.3 8.7 0.00 0.00 0.00 67 1004.1
20260504130646 58 184 4.3 8.7 0.00 0.00 0.00 67 1004.2
20260504130531 58 246 4.3 8.7 0.00 0.00 0.00 66 1004.1
20260504130426 58 233 4.3 9.6 0.00 0.00 0.00 67 1004.0
20260504130338 58 243 4.3 9.6 0.00 0.00 0.00 66 1004.1
20260504130249 58 166 4.3 9.6 0.00 0.00 0.00 67 1004.1
20260504130138 58 197 3.5 9.6 0.00 0.00 0.00 67 1004.1
20260504120231 55 311 5.2 9.6 0.00 0.00 0.00 71 1004.0
20260504120143 55 281 6.1 9.6 0.00 0.00 0.00 71 1003.9
20260504110651 54 229 3.5 11.3 0.00 0.00 0.00 72 1003.5
20260504110556 54 207 4.3 11.3 0.00 0.00 0.00 72 1003.5
20260504110430 54 245 5.2 11.3 0.00 0.00 0.00 72 1003.4
20260504110342 54 214 5.2 11.3 0.00 0.00 0.00 72 1003.5
20260504110234 54 238 3.5 11.3 0.00 0.00 0.00 72 1003.5
20260504110145 54 112 2.6 11.3 0.00 0.00 0.00 72 1003.4
20260504100559 55 221 1.7 5.2 0.00 0.00 0.00 71 1003.4
20260504100449 55 188 2.6 5.2 0.00 0.00 0.00 71 1003.4
20260504100359 54 229 2.6 6.1 0.00 0.00 0.00 71 1003.4
20260504100251 55 227 2.6 6.1 0.00 0.00 0.00 71 1003.4
20260504100140 55 243 1.7 6.1 0.00 0.00 0.00 71 1003.4